Wind_Speed
17 19 21 20 17 15 15 15 14 14 15 16 15 15 17 18 19 17 16 17 18 21 24 24 28 32 32 30 26 25 28 29 28 26 26 26 26 27 27 26 26 26 26 26 27 27 27 27 27 27 27 27 27 25 24 24 23 23 23 22 22 21 20 20 20 20 20 19 19 19 18 17 16 15 14 14 14 14 14 14 13 12 12 11 11 10
18 21 21 17 14 14 15 16 16 16 16 17 17 17 18 20 20 18 17 17 18 23 27 26 30 34 33 31 28 28 30 31 30 29 29 28 29 29 29 29 29 29 29 30 30 30 29 29 29 29 28 28 27 26 25 25 24 23 23 23 23 22 20 20 20 20 20 20 20 19 18 17 16 15 15 16 16 15 15 15 14 13 13 12 11 11
20 22 18 14 15 17 17 18 18 17 17 17 17 18 20 20 19 18 17 17 19 23 27 27 31 36 35 33 33 32 33 33 31 30 29 27 28 28 28 27 28 29 29 30 30 30 30 30 31 30 29 28 28 27 25 25 24 23 23 23 23 22 21 21 21 21 21 20 20 19 18 17 16 16 16 16 16 16 16 16 15 14 13 12 12 11
21 18 14 12 14 16 16 18 19 19 19 19 19 21 21 19 18 18 17 18 20 24 27 29 34 40 39 37 36 33 32 31 28 28 27 26 27 27 26 25 25 25 25 25 26 27 28 29 30 30 30 29 29 28 26 25 25 24 24 24 24 24 23 22 22 22 22 21 20 19 18 18 17 17 17 17 17 17 17 16 16 15 14 13 12 11
23 19 17 16 14 15 15 16 17 19 19 19 20 21 20 18 17 19 20 21 24 26 27 29 34 42 40 34 33 30 28 29 28 29 29 27 27 27 27 26 24 24 24 24 25 25 26 27 27 28 29 30 30 28 26 26 26 25 25 25 26 26 26 25 24 24 23 22 21 20 19 18 18 18 18 17 17 17 17 17 16 15 14 13 12 12
26 22 21 21 19 19 20 19 19 18 19 19 20 20 18 18 17 19 21 22 24 24 25 23 19 27 32 31 32 34 33 33 31 30 29 26 26 26 26 25 25 25 25 25 25 25 25 26 26 27 28 30 30 28 26 27 26 26 26 26 27 28 27 27 25 25 23 22 22 21 20 19 18 18 17 17 17 17 17 16 15 14 14 13 12 12
29 24 22 22 21 21 22 23 21 20 20 21 23 21 18 19 19 20 21 20 19 19 21 20 12 20 36 40 39 38 36 34 30 28 27 24 23 23 23 22 22 23 24 25 25 24 24 25 25 25 26 28 29 28 27 27 27 27 27 27 28 29 29 28 26 25 24 23 23 23 22 21 20 18 17 17 17 17 16 16 15 14 14 13 13 13
28 23 22 23 21 22 25 24 21 20 22 24 24 21 18 20 19 19 20 19 20 22 24 24 20 23 38 45 42 38 36 35 31 27 23 20 19 19 19 19 19 20 21 24 25 24 24 24 25 25 26 27 29 29 29 27 27 27 27 27 29 29 29 29 27 25 24 24 24 24 23 22 20 19 17 17 17 17 16 16 15 14 14 14 13 13
27 23 21 21 21 23 24 21 17 18 21 24 23 20 19 19 19 20 20 19 21 23 22 25 23 18 29 43 41 37 39 36 30 22 18 18 18 17 17 17 18 18 20 21 23 24 23 23 25 26 27 29 30 31 30 28 27 28 28 28 29 29 29 28 27 25 25 25 25 25 24 22 21 19 18 17 17 17 16 16 15 14 14 14 14 14
29 28 24 23 25 27 25 21 19 18 19 22 21 20 20 19 19 19 18 19 19 18 20 26 26 16 23 41 40 35 37 32 24 19 18 19 16 15 16 17 17 17 18 19 20 22 22 23 24 25 27 29 31 32 32 30 28 28 28 29 29 29 28 28 26 25 25 25 26 25 24 23 21 19 18 17 17 17 16 15 15 15 15 15 15 16
34 32 29 28 29 29 25 22 20 19 19 22 21 19 18 17 19 18 18 19 13 13 23 31 32 22 15 25 29 28 29 25 23 22 20 18 17 19 19 17 17 17 16 17 17 19 21 23 24 23 23 24 28 31 32 32 29 28 28 29 29 28 28 27 26 25 25 26 26 26 25 23 21 19 18 18 18 17 16 16 15 15 16 16 17 18
35 34 33 33 32 29 26 23 21 20 21 23 22 20 16 12 13 13 15 13 5 9 21 25 27 23 18 18 22 26 28 25 24 22 20 21 24 25 22 18 17 17 17 17 17 18 20 24 25 23 21 21 23 27 30 31 29 28 28 29 29 28 28 27 25 25 26 26 27 26 25 24 22 20 19 18 18 17 17 16 17 17 17 18 19 20
35 36 35 33 32 30 26 24 23 23 24 24 24 21 14 5 5 6 5 5 7 12 18 17 15 19 30 35 32 30 30 23 19 21 25 28 27 25 22 19 18 17 17 18 18 19 20 23 25 24 21 21 21 23 28 30 29 28 28 28 29 28 27 26 25 25 26 27 27 26 26 24 23 21 20 19 19 18 18 18 18 19 19 20 21 22
30 32 36 36 35 33 31 30 29 27 27 28 29 24 17 6 1 3 3 3 8 13 16 18 15 17 29 34 28 23 20 17 20 27 29 26 23 22 21 20 19 18 17 18 18 20 21 22 25 26 25 23 22 23 26 29 29 28 28 29 29 28 27 26 25 26 26 26 26 26 26 25 23 21 20 19 19 19 19 19 20 21 21 22 23 24
23 21 29 32 30 30 31 32 33 31 28 28 29 27 24 17 8 5 4 3 4 6 8 11 10 10 14 16 17 18 22 26 30 27 22 21 21 20 20 20 19 18 18 18 19 20 21 22 25 28 29 27 25 25 26 28 28 28 29 29 28 27 26 26 26 26 26 26 27 27 26 24 23 22 21 20 20 20 21 22 22 23 23 24 25 26
23 23 27 25 23 22 21 22 26 29 28 26 26 27 27 27 23 15 9 9 7 7 7 11 17 23 27 30 33 32 34 31 23 18 17 18 19 18 19 20 18 17 17 18 19 19 20 22 24 27 30 29 27 26 28 28 29 29 29 28 28 27 26 26 26 26 26 26 26 26 25 24 23 22 21 21 21 22 22 23 24 25 25 26 27 27
21 24 27 26 25 23 19 17 19 24 25 23 25 30 30 28 26 20 13 12 9 8 10 15 25 36 37 39 38 31 26 19 14 18 18 15 15 18 21 20 17 16 16 17 18 19 20 20 22 25 28 28 27 28 28 29 29 29 28 28 27 27 27 26 25 25 25 26 26 26 25 24 22 21 21 21 22 23 24 25 25 26 27 28 28 28
23 20 22 22 21 22 23 21 21 24 26 24 24 26 26 24 23 19 9 4 3 5 8 14 26 32 27 25 25 20 16 17 20 19 14 12 17 22 22 19 17 18 18 17 18 19 20 20 21 24 26 27 27 28 28 29 29 29 29 28 27 27 26 25 24 25 25 26 26 25 24 23 22 22 22 23 24 25 26 26 27 27 28 28 29 29
29 21 19 19 18 17 22 23 23 26 27 28 25 21 21 18 17 17 11 3 2 3 5 10 19 28 31 29 29 27 23 22 19 14 13 19 23 24 22 18 16 17 18 19 18 18 19 20 20 22 24 26 27 28 29 29 30 29 29 28 27 26 25 25 25 26 26 26 25 24 24 23 23 23 24 24 25 26 27 27 28 28 29 29 29 29
34 25 17 20 21 19 23 27 29 29 28 30 30 26 24 18 13 18 18 9 4 3 5 6 7 19 34 34 29 24 17 13 13 15 21 25 26 26 20 16 16 16 17 19 18 18 18 19 20 22 24 25 27 29 30 30 30 29 28 27 26 25 25 26 26 27 26 26 25 24 24 24 24 24 25 26 27 27 28 28 29 29 29 29 30 30
38 32 21 19 21 23 28 31 32 31 28 30 33 31 29 25 18 15 19 18 10 3 2 2 6 17 23 20 13 5 6 12 21 25 27 26 26 25 18 17 18 14 15 18 18 18 18 18 20 22 24 26 28 29 30 30 29 28 27 26 25 24 25 25 26 26 26 26 25 25 25 24 24 25 26 27 27 28 28 29 30 30 30 30 30 31
38 38 31 25 26 31 33 31 29 30 30 31 32 32 32 32 27 14 10 19 21 16 11 5 9 22 25 18 12 9 9 25 31 27 28 28 27 23 19 22 21 12 14 18 18 18 18 19 20 22 25 27 29 30 30 29 28 27 25 24 23 24 24 24 25 26 26 25 25 25 25 25 25 26 27 27 28 28 29 30 30 30 30 31 31 32
39 39 35 32 34 34 30 27 27 29 32 34 33 34 32 33 35 24 11 17 24 28 28 14 11 30 39 29 20 18 23 31 30 27 30 30 28 25 23 24 20 12 13 17 18 19 19 20 20 22 26 27 29 30 30 29 28 25 24 23 23 23 23 25 26 26 26 26 26 26 26 26 27 27 28 28 28 29 30 31 31 31 31 32 32 33
37 36 32 27 27 27 25 28 30 30 33 36 37 36 33 34 36 31 26 25 22 27 29 12 8 29 33 20 15 19 27 30 30 32 33 29 26 25 25 25 20 13 13 16 18 19 20 22 22 24 27 29 30 32 31 30 27 25 25 24 24 24 24 26 27 27 28 27 28 28 28 28 28 28 28 28 29 30 31 32 32 32 32 33 33 33
34 36 31 18 10 12 16 20 27 31 32 35 37 37 37 38 34 32 35 30 24 35 33 15 15 31 26 17 17 18 25 32 34 36 36 32 26 23 25 26 22 16 16 18 20 20 22 24 25 26 28 30 32 33 32 31 29 28 27 26 25 25 26 27 27 28 28 28 29 29 29 28 28 29 29 29 30 32 33 33 33 33 33 33 34 34
32 37 37 25 13 12 14 18 28 36 37 38 40 39 38 38 36 37 38 31 29 36 31 25 33 42 36 30 30 29 34 39 38 36 37 36 31 27 26 27 27 24 21 22 24 23 22 24 26 29 31 32 33 34 34 33 32 31 29 28 27 26 27 27 27 28 29 29 30 30 29 29 29 30 30 31 32 33 34 34 33 33 33 34 35 35
35 39 42 40 37 36 36 33 32 33 33 36 40 41 41 39 39 40 38 39 38 27 23 39 50 48 48 46 42 43 43 42 41 39 38 37 33 30 29 29 31 30 26 26 27 26 24 24 26 30 32 34 36 36 37 36 34 32 31 29 28 27 27 27 27 28 29 30 31 30 29 30 30 30 31 32 33 34 35 34 34 34 34 35 36 37
38 39 40 43 45 47 47 43 37 33 32 33 35 37 39 38 40 45 45 49 45 26 29 53 49 43 56 55 46 47 45 42 45 43 40 39 37 35 34 33 34 34 33 31 29 29 28 25 26 30 34 37 39 39 39 38 36 33 31 29 28 28 27 27 28 29 29 30 30 30 30 30 30 31 32 33 35 35 36 35 35 35 36 37 37 38
39 39 40 42 44 47 48 45 44 42 40 39 37 35 36 35 39 48 51 52 49 37 44 58 49 47 61 58 50 51 47 47 50 46 44 44 42 41 40 37 38 38 37 34 31 31 31 29 28 30 34 38 41 42 41 39 37 35 33 31 30 29 27 26 27 28 29 29 30 30 30 30 32 33 34 35 36 36 36 36 36 36 37 38 38 38
40 41 42 43 44 48 49 45 44 44 42 43 42 39 39 41 45 51 51 49 50 49 55 59 53 55 62 59 55 54 50 51 52 49 47 46 43 43 43 41 40 38 36 34 32 30 31 31 31 31 34 37 41 44 43 41 39 36 33 31 30 28 26 26 27 28 29 29 30 30 31 32 33 34 35 36 36 37 37 37 37 38 39 39 39 39
45 43 42 43 43 45 48 46 42 42 43 43 43 42 46 50 50 51 50 48 49 53 56 56 55 61 64 59 55 53 52 53 51 47 45 41 40 41 41 39 37 35 35 33 31 29 30 32 33 34 35 37 40 44 45 42 39 37 34 32 30 27 26 26 27 28 29 29 30 32 32 32 33 34 35 36 36 37 37 37 38 39 40 40 40 40
48 44 40 40 37 41 49 43 38 43 44 43 47 52 56 56 51 49 50 50 51 53 53 53 58 63 61 54 51 52 53 51 48 44 40 38 38 39 39 39 36 35 34 32 31 31 31 33 34 34 35 37 40 45 46 43 40 38 36 33 30 28 27 27 28 29 29 29 31 33 33 32 34 35 36 37 37 37 38 38 40 40 40 41 40 40
49 45 41 35 30 39 46 37 35 38 31 33 50 60 59 57 52 51 53 53 52 53 52 54 58 58 53 51 52 53 51 48 42 39 37 37 39 39 39 38 35 34 33 32 32 33 33 33 32 31 33 36 39 44 45 42 39 37 35 33 30 29 28 28 29 29 30 30 32 34 34 34 36 37 37 37 37 38 39 40 41 41 41 41 40 41
46 45 44 37 30 36 39 30 26 23 17 30 53 58 53 52 52 53 55 54 52 53 53 54 56 54 50 51 52 50 49 45 40 38 37 37 39 39 37 35 32 31 31 31 33 33 34 34 30 29 31 34 38 43 42 39 38 36 35 33 31 30 28 29 30 30 32 32 33 36 36 36 38 39 38 39 39 39 40 41 41 41 41 41 41 42
43 43 43 40 33 32 31 23 13 12 26 48 57 52 50 52 49 47 48 49 49 50 53 55 55 52 49 49 48 46 45 42 39 40 39 38 38 37 34 32 29 28 30 31 33 32 32 32 31 30 31 34 39 42 40 39 39 36 34 33 31 31 30 31 32 33 34 34 35 37 38 38 40 40 40 41 42 42 42 42 42 42 42 42 42 42
43 42 43 42 36 28 21 18 14 19 36 49 49 49 53 49 42 39 40 45 47 47 50 53 50 47 44 42 42 41 39 39 41 43 42 38 37 34 32 31 29 29 31 33 32 31 29 30 31 32 32 33 36 39 38 39 39 35 33 31 31 32 33 34 37 37 36 36 37 38 38 39 40 41 42 43 43 43 43 42 42 42 41 42 42 42
45 44 43 41 37 32 25 25 29 30 34 43 49 51 49 44 41 36 35 42 47 44 43 43 41 42 42 41 41 38 37 40 43 44 40 34 32 31 30 30 30 31 34 34 32 30 29 30 33 35 33 31 35 37 38 40 41 37 34 34 33 35 36 38 39 39 37 37 37 38 39 40 41 42 43 43 43 43 41 40 39 39 39 40 40 41
47 46 46 41 37 39 33 24 19 15 23 45 56 51 44 42 38 29 27 38 48 45 41 38 38 42 43 39 37 35 32 36 42 41 34 27 26 27 27 29 31 32 33 32 31 30 30 31 34 35 34 35 40 41 42 43 42 39 36 36 36 37 39 40 39 38 36 36 38 39 40 41 42 43 43 43 42 40 39 38 38 38 39 39 39 40
45 46 49 45 38 38 34 21 12 14 29 48 50 41 37 37 31 21 19 35 49 46 39 36 36 38 36 32 30 28 27 33 38 36 31 27 27 27 27 29 31 30 30 30 30 30 30 31 32 34 37 41 43 43 42 42 41 40 39 39 40 41 41 39 38 37 37 38 40 40 40 41 42 42 42 41 40 39 39 39 39 39 39 39 39 39
46 44 45 43 38 37 36 26 20 26 38 46 42 34 30 28 23 13 13 29 44 39 33 33 32 31 30 29 28 27 27 31 33 32 31 30 29 27 27 28 29 28 28 28 28 29 30 30 31 34 37 41 41 41 41 42 42 42 42 42 41 40 38 36 37 38 39 40 39 38 39 40 41 41 40 39 39 39 39 38 38 38 38 37 37 38
49 48 46 45 42 39 36 28 25 32 43 45 41 35 27 18 16 19 23 35 41 36 34 35 32 32 32 30 30 29 28 29 31 31 31 30 28 27 27 28 28 28 27 27 27 29 29 30 32 35 38 40 40 41 41 42 42 42 40 39 38 36 35 36 37 38 38 37 36 36 38 39 39 39 38 38 37 37 37 37 36 36 36 36 36 37
44 43 41 44 44 40 38 32 25 31 45 48 39 33 28 22 24 31 39 41 38 38 39 37 34 34 33 31 30 30 28 28 28 28 28 28 28 28 28 28 29 28 26 26 28 29 31 33 34 37 39 41 41 41 41 40 39 38 37 36 35 35 35 36 36 36 35 35 35 35 36 36 36 36 35 35 35 35 35 36 36 37 37 36 37 37
39 35 34 40 42 35 32 26 16 23 42 47 39 35 34 35 37 41 43 39 38 40 39 37 36 35 32 31 30 28 26 26 25 25 26 28 29 29 28 26 26 25 25 26 28 30 33 35 36 38 39 40 41 40 39 38 37 35 33 32 32 33 33 33 33 33 33 33 33 33 33 33 34 34 33 34 35 35 36 36 37 37 36 36 36 35
35 34 33 39 40 32 28 26 25 33 42 42 38 36 36 37 39 39 37 36 37 37 35 35 35 33 31 30 28 25 24 23 23 25 26 27 29 29 25 23 22 23 26 28 30 33 34 35 36 37 37 38 37 36 35 33 32 30 29 29 30 30 30 30 30 30 29 29 30 31 31 32 33 33 34 34 35 35 36 35 35 35 35 34 34 34
32 35 35 37 38 35 34 36 38 40 41 38 38 38 34 33 34 34 34 35 34 33 34 33 31 29 28 26 24 23 23 22 23 25 25 26 28 27 24 23 23 25 27 28 30 31 32 32 33 32 32 32 31 30 29 28 27 26 27 27 28 27 27 27 27 27 27 28 29 30 31 31 32 32 33 33 33 34 33 33 34 34 33 33 33 33
33 36 35 35 36 35 36 38 38 38 38 38 38 37 34 33 33 33 34 34 32 32 32 30 29 28 26 24 23 23 22 22 23 23 23 23 23 22 23 23 24 25 27 28 28 29 29 29 28 27 27 26 25 25 25 25 25 25 25 25 25 25 25 25 25 26 27 28 29 30 30 31 31 31 31 31 31 31 31 32 32 32 33 33 33 33
34 34 34 34 34 33 34 36 38 38 38 38 37 37 36 35 34 33 33 32 32 31 30 29 28 27 25 24 24 22 22 23 22 21 21 21 21 21 23 23 24 26 27 27 27 27 26 25 24 24 23 23 23 24 23 23 24 23 23 23 23 23 24 25 26 26 27 28 29 29 29 29 29 30 30 30 30 30 30 31 31 31 32 32 32 33
34 34 34 34 35 35 35 36 36 36 36 37 37 37 36 35 34 34 33 32 31 31 30 29 28 27 27 26 25 24 24 23 22 21 21 21 21 22 23 23 23 23 23 22 22 21 21 21 21 21 21 21 21 21 21 21 22 22 22 23 23 24 25 25 26 26 27 27 28 28 28 29 29 29 29 29 30 30 30 31 31 31 32 33 34 35
33 33 34 34 35 37 38 38 37 36 36 36 36 35 35 35 34 33 32 31 30 29 29 29 29 29 28 27 26 25 23 22 21 21 21 21 21 21 21 21 21 20 19 19 19 18 19 19 19 19 19 19 19 19 20 20 21 21 22 23 23 25 25 25 26 27 27 27 27 27 28 28 29 29 30 30 31 31 31 32 33 34 34 35 36 37
35 36 35 35 37 39 39 38 37 36 35 35 33 31 30 30 30 29 28 26 26 27 28 28 28 28 28 27 25 23 21 20 20 20 20 21 22 21 21 21 20 19 19 19 19 19 19 19 18 18 18 18 19 20 20 21 22 23 23 24 24 25 25 25 26 26 26 27 27 27 28 29 30 31 31 32 32 33 34 35 35 36 38 39 39 40
36 36 35 35 35 35 33 31 30 30 31 30 27 24 23 24 24 24 23 23 24 25 26 26 27 28 27 25 22 20 19 18 18 19 20 21 22 22 22 21 21 21 20 20 20 19 18 18 18 19 19 20 20 21 22 22 23 24 24 25 25 26 26 26 26 26 26 27 27 28 29 30 31 32 33 33 34 35 36 37 38 39 40 41 42 43
Wind_Direction
252 252 252 254 259 263 267 267 263 260 260 261 263 264 266 267 268 270 269 263 264 267 268 271 276 280 281 282 282 281 280 279 282 284 285 285 284 283 281 280 278 277 276 273 270 269 268 268 267 267 267 266 267 266 265 262 258 255 252 248 247 245 244 242 235 232 232 233 236 237 236 237 240 244 246 246 246 246 245 245 246 245 246 247 249 252
254 254 257 264 268 263 261 262 260 257 256 258 260 262 264 266 270 273 271 267 267 271 274 277 278 278 280 282 282 280 279 281 285 287 286 285 285 282 279 277 275 274 272 271 270 270 270 270 269 268 268 267 266 263 261 259 255 252 247 243 242 240 237 233 230 230 231 232 234 234 234 236 239 241 243 244 244 244 245 245 245 245 245 247 248 251
259 262 267 269 263 256 253 256 258 256 252 253 255 258 260 265 273 275 275 277 277 278 281 283 282 281 282 284 283 282 283 285 288 287 286 285 284 281 281 279 276 272 271 270 270 271 270 270 269 268 268 267 264 261 257 255 253 249 244 238 236 234 229 226 227 231 234 236 237 236 236 238 239 241 242 243 244 244 245 245 245 245 246 247 250 254
262 268 273 262 254 253 254 254 255 254 253 252 252 256 261 268 274 276 280 284 283 283 285 288 288 285 284 284 283 285 286 287 288 289 289 288 286 286 285 282 276 273 271 270 269 270 269 269 268 268 266 264 262 259 254 251 250 246 240 235 230 227 224 224 230 235 238 240 241 239 238 239 240 240 240 241 243 244 244 245 245 246 247 249 252 254
263 267 266 261 258 256 254 254 255 256 257 257 256 257 263 271 275 279 284 285 285 284 286 291 291 287 287 286 287 289 288 289 293 293 293 292 290 289 285 282 279 278 275 271 269 269 268 268 268 266 263 260 258 257 253 249 247 243 236 232 227 223 222 224 232 237 239 241 242 241 240 240 240 239 239 240 242 243 244 244 245 246 248 250 252 254
264 264 264 263 261 259 257 256 257 261 264 263 261 260 265 273 275 278 280 281 283 283 286 291 291 288 289 288 289 292 292 293 297 295 295 295 292 288 287 286 282 278 273 270 268 265 264 264 264 264 261 257 255 254 251 247 244 240 234 229 226 224 223 226 231 236 239 241 242 240 239 237 236 236 237 239 241 242 242 244 245 248 249 250 252 254
263 260 261 261 258 257 258 257 255 259 262 260 260 264 267 268 270 272 272 273 276 279 285 286 275 283 289 288 289 293 295 297 297 297 298 297 293 291 292 290 283 275 268 265 264 260 259 261 263 265 264 259 253 249 247 246 243 238 232 228 226 225 225 227 231 234 238 241 241 240 238 235 232 232 234 238 240 241 242 246 248 249 250 251 252 254
261 260 258 258 257 256 256 259 261 260 256 256 262 268 266 267 269 269 270 270 271 274 278 275 269 278 284 287 292 296 297 299 300 302 303 301 301 301 299 293 284 276 267 260 257 254 253 257 262 265 263 257 250 245 244 244 242 237 232 228 227 226 226 227 229 234 238 240 240 239 238 236 233 232 233 236 239 242 244 246 248 249 250 251 251 255
264 264 260 258 257 257 259 264 268 260 255 258 265 267 264 267 268 268 272 271 273 276 270 266 268 269 275 282 292 295 294 299 303 307 310 308 309 308 304 296 286 278 271 262 254 248 247 252 259 260 258 253 246 241 240 241 240 236 231 228 227 227 227 227 229 234 238 240 240 239 237 235 234 234 234 236 239 243 245 246 247 249 250 252 254 259
261 260 260 259 257 259 264 267 263 255 255 259 261 262 262 266 268 271 274 268 270 271 262 265 267 258 274 283 286 289 291 298 306 310 312 310 309 309 307 302 292 282 276 271 260 250 245 247 254 257 256 252 246 239 236 238 238 236 231 228 227 227 227 228 230 235 238 240 240 239 237 236 236 236 236 238 241 243 245 246 248 250 251 254 258 262
253 256 257 257 259 262 262 259 256 253 251 254 254 255 259 263 266 267 264 263 269 265 260 269 269 256 272 286 282 286 293 300 306 308 309 307 306 310 308 301 294 287 279 274 267 258 248 244 246 251 255 254 250 242 237 237 237 234 231 228 227 227 228 229 232 236 238 239 239 237 237 237 236 236 237 240 243 245 247 248 250 251 253 256 260 263
249 251 253 255 256 256 254 251 253 251 246 247 246 247 252 261 267 263 257 253 248 264 268 275 272 252 239 259 275 285 291 297 304 306 307 307 309 311 309 300 292 289 284 278 272 265 253 244 241 244 252 256 254 248 241 238 236 233 229 227 227 227 228 232 234 237 238 238 238 237 236 238 237 237 238 240 244 246 248 251 252 254 256 260 262 264
247 249 250 252 252 249 247 245 244 241 239 240 240 236 235 252 288 261 245 237 229 253 269 274 269 244 243 259 273 280 286 295 302 304 306 308 310 310 308 301 292 286 282 278 275 270 260 248 240 240 248 255 256 252 244 239 234 230 227 226 227 229 231 235 236 237 238 238 238 238 238 239 238 238 238 240 243 247 250 252 254 256 259 261 263 265
245 250 248 246 248 247 246 242 240 239 237 238 237 230 219 194 43 269 247 271 255 258 267 262 258 254 257 269 278 279 287 298 299 301 305 306 309 310 308 302 294 289 282 276 274 271 266 255 243 239 246 252 254 250 242 237 232 227 225 225 227 230 233 235 236 236 238 238 238 239 239 239 238 238 239 241 244 247 250 252 254 257 259 262 264 267
236 247 247 245 248 251 251 250 252 253 250 247 245 238 230 220 215 235 218 213 256 286 272 237 234 249 256 270 281 284 292 295 296 299 302 304 308 309 310 307 300 292 283 277 275 272 268 261 250 243 245 249 251 246 237 232 229 225 223 225 228 232 235 235 235 237 238 238 238 239 239 239 238 238 238 240 244 247 250 253 256 258 261 264 266 268
233 246 252 249 250 251 251 251 250 247 245 246 239 231 232 236 239 246 249 248 268 305 270 226 237 255 264 272 277 283 290 293 296 299 301 305 306 309 316 315 305 294 284 278 276 274 269 264 258 250 246 246 246 240 233 227 225 223 223 226 229 231 233 233 234 236 237 237 238 238 238 238 238 238 240 243 247 250 253 255 258 260 262 265 266 268
228 242 251 248 247 246 242 237 233 231 231 229 223 223 232 240 240 242 258 266 268 282 264 241 251 263 271 278 280 282 287 289 298 303 303 304 306 313 318 314 305 299 288 276 274 275 271 265 260 252 245 243 241 236 230 224 222 222 223 226 229 230 232 233 234 234 235 236 237 237 237 237 238 239 242 245 249 252 255 257 259 261 263 265 267 269
234 242 250 246 243 239 232 226 221 223 225 221 221 228 234 237 234 232 249 292 256 266 263 241 253 265 268 273 281 282 280 290 298 299 299 303 310 317 318 312 307 303 292 279 275 277 275 268 260 250 242 238 236 232 226 221 220 221 223 225 228 230 231 233 234 234 235 236 236 237 237 238 239 241 244 247 250 254 256 258 261 262 264 266 268 271
238 242 250 244 234 227 223 220 216 218 222 224 230 232 224 222 221 213 215 255 229 244 282 249 250 262 260 260 275 281 281 291 293 286 295 306 314 320 320 314 310 305 294 282 278 278 278 272 262 250 240 234 232 229 222 219 220 221 223 225 227 228 229 231 233 234 235 235 235 236 237 238 240 243 246 250 253 256 258 259 261 262 264 267 270 273
235 237 244 236 225 216 215 215 215 216 216 219 226 226 221 221 215 209 214 221 197 204 280 272 245 262 267 270 279 281 277 283 279 284 300 307 315 321 320 314 311 305 291 282 279 277 276 272 263 249 239 234 230 227 223 222 222 222 224 226 227 230 232 234 235 235 235 235 235 236 238 240 243 247 250 253 255 256 257 259 261 263 266 269 272 275
232 233 237 230 216 212 217 222 227 231 229 224 222 220 219 219 213 218 229 227 220 218 253 273 267 265 270 282 287 220 191 273 286 293 300 303 313 320 318 313 314 304 285 281 279 276 273 270 263 250 241 236 231 227 225 223 224 225 226 227 230 233 236 239 239 238 237 237 237 239 241 244 248 251 253 254 255 256 258 260 263 266 269 272 275 277
228 230 234 229 219 220 227 233 238 240 240 239 238 235 231 225 216 214 234 229 228 236 232 226 278 269 265 272 265 197 226 282 290 293 297 301 311 317 313 313 316 299 277 280 276 273 273 269 264 254 245 239 234 231 228 226 226 228 230 231 234 237 239 241 241 240 239 239 240 242 244 248 251 253 254 255 256 258 260 262 265 268 271 273 275 278
230 228 230 230 233 237 237 236 234 233 235 235 238 239 236 230 222 214 223 231 227 236 242 242 273 272 271 270 258 249 268 284 290 292 296 302 307 313 313 311 312 295 274 277 275 274 276 274 265 253 246 241 236 234 233 232 231 230 232 233 236 239 241 241 239 238 238 239 240 243 247 251 254 254 255 257 258 260 262 264 266 269 271 273 275 278
224 220 223 228 238 241 234 233 234 232 230 226 228 232 230 230 230 228 238 244 237 238 238 229 260 267 272 272 252 260 277 285 292 294 298 302 302 308 312 309 309 295 273 274 277 276 278 278 269 256 248 243 240 239 238 236 234 233 234 235 237 239 239 238 238 237 238 239 241 244 249 253 255 257 258 259 261 262 264 265 267 269 271 274 276 278
214 213 217 216 230 239 228 230 230 226 225 227 231 234 233 234 233 232 237 240 248 250 237 215 249 257 261 267 260 267 281 286 291 293 297 301 298 297 304 306 304 294 276 273 278 278 276 277 274 266 256 249 246 243 241 239 239 239 238 238 238 238 237 237 237 237 238 239 242 247 252 256 258 259 261 262 263 264 265 266 268 270 272 275 277 279
224 222 220 211 204 218 219 221 225 225 224 227 232 232 231 231 228 228 233 231 241 250 237 224 246 254 256 261 263 270 279 283 286 289 294 299 296 291 296 299 296 290 281 276 278 280 275 272 274 270 261 255 250 246 243 242 242 242 240 238 237 236 236 236 236 237 238 241 244 249 254 257 259 261 262 264 264 265 266 267 269 271 274 276 278 280
235 231 229 227 226 229 231 233 236 234 229 230 235 235 231 232 231 230 230 229 233 242 245 244 249 257 261 261 265 272 278 281 284 288 292 293 292 290 290 291 288 284 281 278 277 279 276 269 270 270 264 259 253 249 246 244 242 241 240 239 237 235 235 234 235 237 240 243 247 251 255 258 261 263 264 265 265 266 267 268 270 273 275 277 278 280
230 225 227 232 235 238 242 245 248 246 243 243 244 240 236 236 234 230 229 235 235 233 253 257 255 260 267 268 272 276 279 283 286 288 289 290 289 286 285 284 282 280 281 280 276 276 276 269 265 267 266 261 255 252 249 246 243 240 238 237 236 235 235 235 237 239 241 246 250 253 258 261 263 264 265 265 266 266 268 270 272 274 276 277 279 281
228 224 227 232 238 243 246 247 247 249 252 254 251 247 245 242 238 236 237 241 237 233 252 263 262 265 271 275 277 278 282 285 286 286 287 289 288 285 283 283 282 281 282 282 279 275 272 268 265 267 267 264 259 254 251 247 243 240 238 237 236 236 236 235 238 241 244 248 253 256 260 262 264 265 266 267 267 268 270 272 274 275 276 277 279 280
227 229 232 235 240 244 245 244 246 250 251 251 250 251 253 252 250 249 250 250 245 245 258 266 266 268 273 275 276 279 283 283 284 287 288 291 291 289 288 287 284 282 282 282 283 278 271 266 264 265 268 266 261 255 251 247 244 242 241 240 240 240 239 239 242 244 246 250 254 257 260 263 264 266 267 269 270 271 272 273 274 275 276 277 278 278
222 225 230 233 235 241 243 243 244 247 246 246 249 253 255 255 253 250 251 253 248 249 259 263 262 266 270 272 276 280 281 281 284 287 289 292 294 292 291 290 287 285 283 282 281 278 272 267 263 263 266 267 262 255 249 246 244 243 242 241 241 242 244 246 247 246 247 249 252 256 261 264 265 267 269 270 271 271 272 273 274 274 275 276 277 278
220 219 222 224 225 236 242 240 238 241 242 244 248 251 252 250 248 246 248 251 249 250 257 256 256 263 270 276 281 282 281 283 286 288 290 293 293 292 291 289 288 286 282 280 276 272 269 266 264 263 264 268 265 255 248 245 243 242 243 244 244 246 247 248 248 247 247 247 250 257 263 266 266 266 268 269 270 271 272 272 273 273 275 276 277 278
222 219 219 217 217 234 242 240 238 239 239 241 246 251 251 248 247 248 250 252 251 251 253 253 258 270 279 281 282 282 283 285 287 290 293 293 292 291 288 285 283 279 276 274 271 268 264 263 263 261 262 268 266 254 245 242 241 241 244 245 246 248 248 246 246 246 246 246 250 257 264 267 265 264 267 269 270 271 271 271 272 273 274 276 277 277
226 223 224 222 220 233 241 242 238 231 229 245 251 255 256 252 251 251 253 256 256 254 256 261 269 278 280 278 279 282 284 287 291 292 291 289 288 287 283 279 275 271 270 271 270 269 263 259 257 255 259 266 260 246 238 237 238 239 242 244 245 245 243 243 243 243 244 246 250 257 264 269 268 266 267 268 268 268 268 269 271 272 273 274 275 275
234 229 227 227 225 231 237 232 220 216 239 252 258 261 261 259 258 257 260 263 262 259 261 265 270 274 277 277 281 284 286 288 290 288 284 282 281 280 279 276 271 268 271 272 272 269 262 257 254 251 258 264 253 238 232 234 235 236 240 242 243 242 241 240 241 240 242 247 252 258 266 270 270 268 267 267 266 266 266 267 269 270 272 273 273 274
234 232 230 229 227 228 222 209 215 239 248 253 259 260 258 257 255 252 255 261 263 263 263 264 269 275 279 281 282 284 286 286 285 282 279 279 278 277 277 275 272 271 271 270 270 266 258 255 251 248 254 257 242 232 232 232 229 233 238 238 238 240 240 241 242 241 243 248 253 260 267 270 268 267 266 266 265 265 265 266 268 269 270 271 271 271
230 231 231 229 227 227 220 221 236 248 254 256 256 255 255 256 255 253 255 264 270 270 265 266 271 275 278 281 282 282 284 283 280 277 277 280 280 277 275 273 272 272 271 270 268 262 255 250 246 244 245 237 225 227 232 228 226 230 234 233 236 240 243 244 244 243 245 250 257 264 269 268 265 264 264 264 264 264 265 266 267 268 268 268 268 267
230 231 232 229 228 229 227 230 240 244 253 256 255 256 257 259 262 261 259 267 273 271 266 265 270 275 279 282 283 283 281 277 275 277 283 285 280 275 273 272 270 268 267 266 263 259 254 248 245 244 236 221 217 223 225 222 224 229 232 236 241 244 246 245 243 245 250 256 263 267 266 264 263 263 263 262 263 264 266 267 267 267 267 266 265 264
227 229 231 229 226 225 223 225 228 227 244 252 256 260 259 259 263 259 251 264 271 271 269 269 271 276 280 281 281 279 272 269 274 284 290 286 279 276 272 268 266 263 261 259 256 254 254 250 248 246 233 220 219 222 221 221 226 232 237 242 245 246 247 245 246 251 257 261 263 263 261 261 262 262 262 263 265 266 267 268 268 267 265 264 263 262
222 223 225 225 223 221 221 224 229 235 245 252 257 260 260 260 257 233 225 260 269 273 276 277 278 281 282 281 281 277 271 272 280 289 288 284 282 278 269 264 262 260 258 256 254 254 255 253 249 242 230 222 222 223 223 227 232 237 242 246 248 250 250 251 253 257 259 261 261 260 259 261 262 263 264 266 267 267 267 267 266 265 265 264 264 264
220 222 224 225 225 223 223 225 233 241 248 253 255 257 259 251 225 214 236 261 270 276 280 280 282 284 283 283 282 280 278 279 282 284 283 282 281 275 266 262 259 258 256 254 253 253 252 248 242 234 227 226 227 229 232 235 240 245 250 254 255 255 254 254 256 258 258 259 258 258 260 262 263 264 265 265 265 265 265 266 266 267 267 267 267 267
215 219 222 224 225 225 226 228 235 246 252 253 251 250 248 231 220 238 257 267 273 276 278 279 280 281 281 281 280 279 278 277 277 278 277 276 274 270 264 259 256 256 255 253 251 249 245 241 237 233 232 233 235 238 242 246 251 256 259 259 257 256 256 258 259 259 259 258 258 260 262 262 263 264 263 263 264 265 266 267 268 268 269 269 269 269
220 216 214 220 224 224 225 225 227 243 250 251 247 243 243 243 248 259 268 271 273 276 277 279 279 279 279 278 277 277 275 272 272 271 269 270 271 268 263 258 255 254 252 249 247 245 243 241 239 238 239 241 243 248 252 256 260 262 261 260 259 260 261 262 262 262 262 261 262 263 262 262 262 262 263 264 265 266 267 268 269 269 269 269 269 269
226 219 215 221 224 219 214 220 230 240 247 252 253 251 253 256 261 267 269 270 273 276 276 276 277 278 278 277 276 275 271 266 264 263 263 265 264 262 260 256 251 248 247 246 245 244 244 244 245 246 248 250 253 257 259 262 263 263 262 262 263 263 264 264 264 264 264 263 263 262 261 262 263 265 266 267 268 269 270 270 270 270 269 268 268 268
228 228 228 231 232 228 228 235 242 246 250 254 257 259 261 262 264 266 268 269 271 271 271 272 273 273 273 271 269 266 262 259 257 255 254 254 254 254 254 251 247 245 244 244 245 246 248 250 252 254 257 258 260 261 262 263 263 262 262 263 263 264 265 265 265 264 263 262 262 263 264 266 268 270 271 271 271 272 272 270 269 268 267 267 267 268
235 237 237 237 237 238 241 245 248 250 252 253 256 259 261 262 263 265 266 267 266 267 267 267 266 266 266 262 258 255 252 250 248 245 243 244 245 246 247 246 245 244 244 246 249 251 254 256 258 260 261 262 263 262 262 261 261 261 263 263 264 265 264 263 263 263 263 265 266 268 270 271 272 273 273 273 274 273 272 271 270 270 269 270 271 273
238 239 238 236 236 237 241 245 248 249 251 253 255 258 260 262 264 265 264 264 264 263 262 261 260 259 255 252 249 247 246 246 244 242 242 244 244 245 246 246 245 246 248 250 252 254 256 258 258 259 260 260 260 260 260 261 261 262 263 262 262 262 263 264 265 266 268 270 271 273 275 275 275 275 275 275 274 273 272 272 272 273 274 275 276 277
241 239 236 235 236 238 241 247 249 249 250 252 254 256 259 260 261 262 263 262 261 259 258 257 255 251 247 246 247 248 249 249 248 249 250 249 249 249 248 248 249 249 249 251 252 254 256 256 256 257 258 259 260 261 261 261 261 260 261 261 263 265 266 268 271 273 275 277 277 278 279 278 277 276 275 274 273 273 273 273 274 275 276 277 277 278
242 240 238 239 239 240 243 247 249 249 251 253 254 255 256 256 257 258 258 257 255 253 251 249 248 246 246 247 249 251 251 251 251 252 251 249 248 248 247 248 249 250 251 254 257 259 260 261 262 263 263 263 263 262 261 261 261 262 264 265 268 270 272 275 277 279 281 282 281 281 279 278 277 276 274 274 274 274 274 275 276 276 277 277 277 277
240 241 241 240 239 242 247 250 250 251 254 256 255 253 250 248 248 247 246 245 245 245 245 244 244 246 249 251 253 253 253 252 251 249 247 246 245 244 245 246 248 251 255 257 259 262 264 265 265 265 263 262 261 261 262 263 264 266 268 270 272 275 277 280 282 283 284 283 282 280 279 277 276 275 275 275 275 276 276 277 277 278 278 278 278 277
240 242 243 243 245 250 254 254 251 250 251 252 248 242 236 235 236 236 235 236 238 242 245 246 247 249 251 253 253 254 253 252 250 247 245 244 242 243 244 246 248 252 255 256 258 259 260 259 259 259 259 260 262 263 265 267 269 271 273 276 278 280 282 283 284 284 282 280 279 278 278 277 276 276 276 277 277 278 279 279 279 279 279 279 279 279
Height
3170 3170 3170 3171 3173 3174 3174 3174 3175 3175 3175 3175 3175 3175 3175 3174 3174 3175 3176 3175 3175 3173 3171 3171 3170 3167 3168 3169 3171 3170 3168 3167 3168 3168 3167 3167 3167 3167 3167 3167 3167 3166 3167 3167 3166 3167 3167 3167 3167 3167 3168 3169 3169 3170 3170 3170 3171 3171 3171 3171 3171 3172 3173 3173 3174 3175 3175 3176 3176 3176 3176 3176 3176 3177 3177 3177 3178 3178 3178 3179 3179 3179 3179 3179 3179 3179
3168 3167 3168 3170 3172 3172 3172 3172 3172 3173 3173 3173 3173 3173 3173 3172 3172 3173 3174 3173 3173 3171 3168 3169 3166 3164 3164 3165 3167 3167 3164 3163 3164 3164 3164 3163 3163 3162 3162 3162 3162 3162 3162 3162 3162 3162 3163 3163 3163 3164 3165 3165 3166 3167 3167 3167 3167 3168 3168 3168 3168 3169 3170 3171 3172 3172 3173 3173 3174 3173 3173 3173 3174 3174 3174 3175 3175 3176 3176 3177 3177 3177 3177 3177 3177 3177
3165 3165 3167 3169 3169 3169 3169 3169 3170 3170 3170 3171 3171 3170 3170 3170 3171 3171 3171 3171 3171 3168 3165 3165 3162 3159 3160 3161 3161 3162 3160 3160 3161 3160 3160 3159 3159 3158 3158 3158 3158 3158 3158 3158 3158 3158 3159 3159 3159 3160 3161 3162 3162 3163 3163 3164 3164 3164 3165 3166 3166 3166 3167 3169 3169 3170 3171 3171 3171 3171 3171 3171 3171 3171 3172 3172 3173 3173 3174 3174 3175 3175 3175 3175 3175 3175
3163 3164 3166 3166 3166 3166 3167 3167 3167 3167 3168 3168 3168 3168 3168 3169 3169 3169 3169 3169 3168 3166 3163 3162 3158 3153 3154 3155 3156 3158 3156 3156 3157 3156 3156 3156 3155 3154 3154 3154 3154 3154 3154 3154 3154 3154 3155 3155 3155 3156 3157 3157 3158 3158 3160 3160 3161 3161 3162 3162 3163 3163 3164 3166 3167 3168 3169 3169 3169 3169 3169 3168 3169 3169 3169 3170 3171 3171 3172 3172 3173 3173 3173 3173 3173 3173
3160 3163 3163 3164 3164 3165 3165 3165 3165 3165 3165 3166 3166 3166 3166 3167 3168 3167 3167 3166 3164 3163 3161 3160 3153 3145 3147 3150 3150 3154 3153 3152 3154 3152 3152 3152 3151 3151 3150 3150 3150 3150 3151 3150 3151 3151 3151 3151 3151 3152 3152 3152 3153 3155 3156 3157 3157 3158 3158 3159 3160 3160 3161 3162 3164 3165 3166 3167 3167 3167 3167 3166 3166 3167 3167 3168 3168 3169 3170 3170 3171 3171 3171 3171 3171 3171
3157 3160 3160 3161 3162 3162 3163 3163 3163 3164 3163 3163 3163 3163 3165 3165 3166 3165 3165 3164 3162 3160 3159 3160 3153 3140 3140 3145 3146 3149 3149 3149 3150 3149 3148 3149 3148 3147 3146 3146 3146 3146 3146 3146 3147 3147 3147 3147 3147 3147 3148 3148 3149 3151 3152 3153 3153 3154 3155 3155 3156 3157 3158 3159 3161 3163 3164 3164 3164 3164 3164 3164 3164 3165 3165 3166 3166 3167 3168 3168 3168 3169 3169 3169 3169 3169
3152 3157 3158 3158 3159 3160 3160 3160 3162 3162 3161 3161 3160 3162 3164 3163 3164 3164 3163 3162 3160 3157 3156 3158 3155 3141 3134 3138 3142 3144 3144 3145 3146 3145 3144 3145 3144 3143 3142 3142 3142 3141 3141 3142 3142 3143 3143 3143 3143 3144 3144 3145 3146 3147 3148 3149 3150 3151 3152 3152 3153 3154 3155 3156 3157 3159 3161 3161 3162 3162 3162 3162 3162 3162 3163 3163 3164 3165 3165 3166 3166 3166 3166 3167 3167 3167
3148 3153 3155 3155 3156 3157 3156 3157 3160 3161 3160 3158 3158 3161 3162 3161 3162 3161 3161 3160 3157 3156 3154 3154 3155 3146 3131 3130 3137 3139 3140 3140 3141 3142 3141 3141 3140 3139 3139 3138 3137 3137 3136 3137 3137 3138 3139 3139 3140 3140 3141 3141 3142 3143 3144 3145 3146 3147 3148 3149 3150 3151 3152 3153 3154 3156 3157 3158 3159 3159 3159 3159 3159 3160 3160 3161 3162 3163 3163 3164 3164 3164 3164 3164 3164 3164
3147 3150 3152 3153 3153 3153 3153 3156 3158 3158 3157 3156 3157 3159 3159 3159 3159 3159 3159 3158 3156 3154 3151 3149 3154 3148 3129 3125 3134 3134 3134 3136 3136 3138 3138 3137 3138 3136 3136 3135 3134 3133 3133 3132 3133 3133 3135 3135 3136 3136 3136 3137 3137 3138 3140 3141 3143 3144 3145 3146 3147 3148 3149 3150 3152 3153 3154 3155 3156 3157 3157 3157 3157 3157 3158 3159 3160 3161 3161 3162 3162 3162 3161 3161 3161 3161
3144 3145 3148 3149 3149 3149 3151 3154 3155 3156 3155 3154 3155 3156 3156 3157 3156 3157 3156 3155 3156 3151 3146 3147 3151 3146 3127 3121 3130 3132 3131 3133 3133 3135 3135 3134 3135 3134 3133 3133 3131 3131 3130 3129 3130 3130 3131 3132 3132 3132 3132 3133 3133 3135 3136 3137 3139 3140 3142 3143 3144 3145 3146 3148 3149 3150 3151 3152 3153 3154 3154 3155 3155 3155 3156 3157 3158 3159 3159 3159 3159 3159 3159 3158 3158 3158
3140 3142 3144 3145 3145 3147 3149 3151 3151 3153 3153 3152 3154 3154 3155 3155 3154 3155 3153 3154 3155 3145 3140 3143 3145 3145 3131 3117 3123 3128 3128 3131 3131 3131 3132 3131 3132 3131 3131 3130 3129 3128 3127 3127 3127 3127 3127 3128 3128 3128 3129 3129 3130 3131 3133 3134 3136 3137 3138 3140 3142 3143 3144 3145 3146 3147 3149 3150 3151 3152 3152 3152 3153 3153 3154 3155 3156 3156 3156 3156 3156 3156 3156 3156 3156 3156
3137 3139 3140 3140 3142 3143 3145 3147 3148 3150 3150 3150 3151 3152 3154 3154 3153 3153 3151 3153 3153 3140 3136 3140 3140 3143 3132 3115 3118 3125 3125 3128 3128 3128 3128 3128 3128 3128 3128 3127 3127 3126 3125 3125 3124 3124 3124 3124 3124 3125 3126 3127 3127 3128 3130 3131 3133 3134 3135 3137 3139 3140 3141 3142 3144 3145 3146 3147 3148 3149 3149 3150 3150 3151 3152 3152 3153 3153 3153 3153 3153 3153 3153 3153 3153 3153
3133 3134 3136 3137 3137 3139 3142 3144 3146 3146 3147 3148 3149 3150 3153 3153 3153 3151 3149 3150 3147 3137 3135 3137 3137 3134 3120 3111 3118 3122 3122 3126 3126 3125 3125 3125 3125 3124 3124 3124 3124 3123 3122 3122 3122 3121 3121 3121 3121 3123 3123 3124 3124 3126 3127 3129 3130 3131 3133 3135 3136 3137 3139 3140 3141 3142 3143 3144 3145 3146 3147 3147 3147 3148 3149 3150 3150 3150 3150 3150 3150 3150 3150 3150 3150 3150
3130 3130 3131 3132 3133 3135 3137 3139 3140 3141 3143 3143 3144 3147 3149 3152 3153 3151 3148 3146 3140 3134 3133 3135 3135 3125 3112 3111 3117 3118 3121 3124 3123 3124 3123 3121 3122 3121 3120 3120 3119 3120 3120 3119 3119 3118 3118 3118 3119 3120 3120 3121 3121 3122 3124 3125 3127 3128 3130 3132 3133 3135 3136 3137 3138 3139 3140 3141 3143 3144 3144 3144 3145 3145 3146 3147 3147 3147 3147 3147 3147 3147 3148 3148 3148 3147
3126 3125 3125 3127 3129 3130 3132 3133 3135 3137 3139 3139 3140 3143 3143 3145 3147 3144 3142 3140 3135 3132 3132 3133 3130 3117 3108 3111 3113 3115 3119 3121 3120 3121 3121 3120 3119 3118 3118 3117 3116 3116 3116 3116 3116 3115 3115 3116 3116 3117 3117 3118 3118 3119 3121 3122 3124 3125 3127 3129 3130 3132 3133 3134 3135 3136 3137 3139 3140 3141 3141 3141 3142 3143 3143 3144 3144 3144 3144 3144 3144 3144 3144 3145 3145 3145
3122 3120 3120 3124 3125 3127 3129 3130 3132 3134 3136 3136 3138 3140 3138 3139 3140 3139 3137 3135 3134 3133 3129 3127 3120 3109 3106 3108 3109 3113 3115 3116 3118 3118 3118 3118 3117 3116 3115 3114 3114 3113 3113 3113 3113 3113 3113 3113 3113 3113 3114 3115 3115 3116 3118 3119 3121 3122 3124 3126 3128 3129 3130 3131 3132 3134 3135 3136 3137 3138 3138 3139 3139 3140 3140 3141 3141 3141 3141 3141 3141 3141 3141 3142 3142 3142
3118 3117 3118 3120 3122 3124 3126 3127 3129 3130 3132 3132 3133 3133 3134 3136 3137 3137 3135 3133 3135 3132 3123 3117 3111 3105 3106 3104 3104 3111 3111 3112 3116 3115 3115 3116 3114 3114 3113 3112 3111 3110 3110 3110 3110 3110 3110 3110 3110 3110 3111 3111 3113 3114 3115 3117 3118 3120 3122 3123 3125 3126 3127 3128 3130 3131 3132 3133 3134 3135 3135 3135 3136 3137 3137 3137 3138 3138 3138 3138 3138 3138 3138 3139 3139 3139
3115 3114 3114 3117 3118 3120 3122 3124 3125 3126 3127 3128 3128 3130 3132 3134 3135 3136 3135 3133 3134 3130 3118 3111 3106 3104 3105 3100 3099 3106 3108 3110 3112 3112 3113 3113 3112 3112 3111 3110 3109 3108 3108 3107 3107 3107 3107 3107 3107 3107 3107 3108 3110 3111 3113 3114 3116 3117 3119 3120 3122 3123 3125 3126 3127 3128 3129 3130 3131 3131 3132 3133 3133 3134 3134 3134 3134 3134 3135 3135 3135 3135 3135 3136 3136 3135
3112 3112 3112 3114 3115 3117 3119 3120 3121 3122 3124 3124 3126 3128 3129 3130 3130 3131 3133 3130 3130 3127 3116 3107 3103 3100 3098 3096 3097 3102 3105 3107 3109 3109 3110 3110 3110 3110 3108 3108 3107 3106 3106 3105 3104 3105 3104 3104 3104 3104 3105 3106 3107 3109 3110 3112 3113 3114 3116 3117 3119 3121 3122 3123 3123 3124 3125 3126 3128 3128 3129 3130 3130 3130 3131 3131 3131 3131 3132 3132 3132 3132 3132 3132 3132 3132
3110 3110 3109 3109 3111 3114 3114 3114 3114 3116 3120 3122 3123 3124 3125 3125 3125 3125 3126 3123 3123 3122 3114 3106 3099 3092 3089 3091 3095 3098 3100 3104 3106 3106 3107 3107 3107 3107 3106 3105 3105 3104 3103 3102 3102 3102 3101 3102 3102 3102 3103 3104 3105 3107 3108 3109 3110 3112 3114 3115 3116 3117 3118 3119 3120 3121 3122 3123 3124 3125 3126 3126 3127 3127 3127 3128 3128 3128 3128 3128 3128 3129 3129 3129 3128 3128
3107 3106 3105 3105 3108 3109 3107 3107 3109 3111 3114 3115 3116 3119 3120 3121 3122 3122 3121 3119 3119 3119 3114 3108 3095 3084 3084 3089 3091 3094 3097 3100 3102 3103 3104 3105 3105 3104 3103 3103 3102 3101 3101 3100 3100 3099 3099 3099 3099 3100 3101 3102 3103 3105 3105 3107 3108 3109 3111 3112 3113 3114 3115 3116 3117 3118 3119 3120 3121 3122 3122 3123 3123 3124 3124 3124 3124 3124 3125 3125 3125 3125 3125 3125 3125 3124
3101 3102 3102 3102 3101 3101 3101 3104 3107 3108 3109 3109 3110 3111 3112 3115 3117 3119 3118 3115 3116 3113 3109 3107 3092 3077 3081 3088 3088 3091 3095 3096 3099 3100 3100 3102 3102 3102 3101 3100 3100 3099 3098 3098 3097 3097 3097 3097 3098 3098 3099 3100 3101 3102 3103 3105 3106 3107 3108 3110 3111 3111 3112 3113 3114 3115 3116 3117 3118 3118 3119 3120 3120 3120 3120 3120 3121 3121 3121 3121 3121 3121 3121 3121 3121 3120
3097 3097 3098 3097 3096 3097 3101 3103 3104 3105 3105 3106 3106 3106 3108 3111 3111 3113 3112 3109 3111 3107 3102 3105 3093 3072 3075 3084 3085 3089 3092 3093 3096 3096 3097 3098 3099 3100 3099 3098 3097 3096 3096 3096 3095 3095 3095 3095 3096 3096 3097 3098 3099 3100 3101 3102 3103 3104 3105 3107 3107 3108 3109 3110 3111 3112 3113 3113 3114 3115 3115 3116 3116 3116 3116 3117 3117 3117 3117 3117 3117 3117 3117 3117 3116 3116
3092 3093 3094 3095 3095 3096 3099 3099 3099 3100 3101 3100 3101 3102 3105 3106 3105 3108 3108 3105 3106 3100 3097 3104 3092 3071 3070 3079 3081 3085 3088 3091 3092 3092 3094 3095 3095 3097 3096 3095 3095 3094 3094 3094 3093 3093 3093 3093 3093 3094 3094 3096 3096 3097 3098 3099 3100 3101 3102 3103 3103 3104 3105 3106 3107 3108 3108 3109 3110 3111 3111 3112 3112 3113 3113 3113 3113 3113 3113 3113 3113 3113 3112 3112 3112 3112
3087 3088 3091 3093 3094 3095 3096 3095 3094 3094 3095 3095 3095 3097 3098 3100 3103 3105 3104 3105 3101 3090 3091 3098 3084 3068 3072 3078 3078 3081 3084 3086 3089 3090 3090 3092 3092 3093 3093 3093 3093 3092 3092 3092 3091 3091 3091 3091 3091 3091 3092 3093 3093 3094 3095 3096 3097 3097 3098 3098 3099 3100 3101 3102 3103 3103 3104 3106 3106 3107 3107 3108 3108 3109 3109 3109 3109 3109 3109 3109 3109 3108 3108 3108 3108 3107
3081 3081 3084 3086 3087 3085 3083 3081 3080 3083 3088 3090 3089 3091 3093 3096 3099 3098 3099 3101 3091 3080 3085 3088 3073 3066 3073 3076 3075 3078 3081 3083 3085 3087 3087 3088 3089 3089 3090 3090 3090 3089 3089 3089 3089 3088 3088 3088 3088 3089 3089 3090 3091 3091 3092 3092 3093 3093 3094 3094 3095 3096 3096 3097 3098 3099 3100 3101 3102 3103 3103 3104 3104 3104 3105 3105 3105 3105 3104 3104 3104 3104 3103 3103 3103 3103
3076 3074 3076 3077 3074 3071 3069 3070 3073 3078 3083 3084 3083 3086 3089 3090 3092 3094 3094 3089 3080 3079 3080 3073 3068 3068 3069 3071 3074 3076 3078 3080 3081 3083 3084 3084 3085 3086 3086 3086 3085 3085 3085 3085 3085 3085 3085 3085 3085 3086 3086 3087 3087 3088 3088 3089 3089 3089 3090 3090 3091 3091 3092 3093 3094 3095 3096 3097 3097 3098 3099 3100 3100 3100 3100 3100 3100 3100 3100 3099 3099 3099 3099 3099 3098 3098
3069 3068 3070 3070 3068 3066 3067 3070 3073 3075 3077 3078 3079 3082 3083 3085 3087 3087 3082 3075 3076 3083 3073 3061 3068 3070 3061 3065 3074 3072 3075 3078 3076 3078 3080 3080 3081 3081 3081 3081 3081 3081 3081 3081 3082 3082 3082 3082 3082 3082 3082 3083 3083 3084 3084 3085 3085 3086 3086 3087 3087 3087 3088 3089 3089 3090 3091 3092 3093 3094 3095 3095 3095 3095 3096 3096 3095 3095 3094 3094 3094 3094 3094 3094 3094 3094
3064 3063 3065 3066 3064 3064 3065 3067 3069 3070 3071 3073 3076 3077 3077 3080 3080 3075 3071 3071 3076 3079 3066 3058 3069 3067 3056 3061 3068 3068 3072 3074 3071 3074 3075 3074 3076 3076 3076 3076 3076 3076 3076 3076 3077 3077 3077 3078 3078 3078 3078 3079 3079 3080 3080 3081 3082 3082 3082 3083 3083 3083 3084 3085 3085 3086 3087 3087 3088 3090 3090 3090 3090 3090 3090 3090 3090 3090 3089 3090 3090 3090 3089 3089 3089 3089
3059 3058 3060 3061 3060 3059 3060 3063 3064 3066 3068 3068 3069 3071 3071 3071 3069 3066 3067 3071 3073 3071 3063 3061 3066 3061 3053 3056 3061 3064 3069 3068 3067 3069 3069 3069 3070 3070 3070 3071 3070 3071 3071 3070 3071 3072 3072 3073 3074 3074 3074 3074 3075 3076 3076 3077 3078 3078 3079 3079 3079 3080 3080 3080 3081 3082 3082 3083 3084 3085 3085 3085 3085 3085 3085 3085 3085 3085 3085 3085 3085 3085 3085 3085 3085 3085
3052 3052 3054 3056 3056 3054 3054 3058 3060 3062 3063 3063 3064 3065 3063 3060 3060 3061 3064 3068 3068 3064 3060 3062 3063 3053 3046 3052 3058 3061 3063 3063 3063 3064 3064 3064 3065 3064 3064 3064 3064 3065 3065 3065 3066 3065 3066 3068 3068 3069 3069 3070 3071 3072 3072 3073 3074 3074 3075 3075 3076 3076 3076 3077 3077 3077 3078 3079 3080 3080 3080 3081 3081 3081 3080 3080 3081 3081 3081 3081 3080 3080 3080 3080 3080 3080
3045 3046 3048 3051 3051 3048 3047 3052 3056 3057 3059 3059 3057 3053 3049 3049 3053 3057 3058 3059 3060 3059 3058 3060 3055 3042 3041 3052 3056 3055 3056 3058 3058 3058 3059 3059 3060 3059 3058 3058 3058 3059 3059 3059 3060 3059 3060 3061 3062 3063 3065 3066 3066 3067 3068 3069 3069 3070 3070 3071 3071 3072 3072 3072 3073 3073 3074 3074 3075 3075 3076 3076 3076 3076 3076 3076 3076 3076 3076 3076 3075 3076 3076 3076 3076 3075
3040 3041 3043 3046 3046 3043 3043 3047 3052 3054 3055 3051 3043 3036 3038 3044 3049 3050 3050 3050 3053 3055 3055 3052 3044 3037 3043 3051 3049 3048 3050 3051 3052 3053 3053 3053 3053 3053 3052 3052 3052 3052 3052 3053 3053 3054 3054 3055 3056 3058 3060 3061 3062 3063 3064 3065 3065 3065 3066 3066 3067 3067 3067 3068 3068 3069 3070 3070 3070 3070 3071 3071 3071 3071 3071 3071 3072 3071 3071 3070 3071 3071 3071 3071 3071 3070
3036 3038 3040 3041 3041 3040 3041 3044 3048 3049 3044 3035 3028 3030 3036 3041 3042 3042 3042 3043 3046 3048 3046 3043 3038 3038 3042 3045 3042 3042 3044 3045 3046 3047 3047 3047 3047 3047 3046 3046 3046 3046 3047 3047 3047 3048 3049 3049 3051 3052 3054 3055 3056 3058 3060 3060 3060 3061 3061 3061 3061 3062 3063 3063 3064 3064 3065 3065 3065 3065 3066 3066 3066 3066 3066 3066 3066 3066 3065 3066 3066 3066 3066 3066 3066 3065
3033 3035 3036 3036 3037 3037 3038 3041 3043 3037 3029 3024 3026 3030 3033 3034 3035 3037 3037 3038 3041 3041 3038 3037 3035 3034 3036 3038 3039 3039 3039 3041 3041 3039 3039 3041 3041 3041 3041 3040 3041 3041 3041 3042 3042 3042 3043 3044 3045 3046 3048 3049 3051 3053 3055 3055 3056 3056 3056 3056 3057 3057 3058 3059 3059 3059 3059 3060 3060 3060 3061 3061 3061 3061 3061 3061 3061 3060 3060 3060 3061 3061 3061 3060 3060 3060
3029 3031 3031 3031 3033 3033 3034 3035 3031 3023 3021 3023 3024 3024 3024 3027 3031 3033 3032 3032 3033 3033 3032 3031 3030 3030 3032 3034 3035 3035 3036 3036 3034 3031 3032 3034 3036 3036 3036 3035 3036 3036 3036 3036 3036 3036 3037 3038 3039 3040 3041 3042 3045 3049 3050 3051 3052 3051 3051 3052 3052 3052 3053 3053 3053 3053 3053 3054 3055 3055 3056 3056 3056 3056 3056 3056 3055 3055 3055 3055 3055 3055 3055 3055 3055 3055
3023 3024 3025 3026 3026 3026 3027 3026 3022 3021 3020 3018 3015 3015 3017 3021 3025 3027 3027 3025 3024 3026 3026 3025 3026 3026 3027 3028 3030 3032 3032 3030 3025 3022 3026 3030 3031 3031 3030 3030 3031 3031 3030 3030 3030 3030 3031 3032 3032 3033 3034 3036 3040 3043 3045 3045 3046 3045 3045 3046 3046 3046 3047 3047 3047 3047 3048 3048 3049 3050 3050 3051 3051 3051 3050 3050 3050 3050 3050 3050 3050 3050 3050 3049 3049 3049
3016 3017 3019 3020 3019 3020 3022 3021 3021 3022 3016 3007 3006 3010 3015 3018 3020 3023 3024 3019 3016 3018 3020 3021 3022 3022 3022 3024 3025 3026 3027 3024 3017 3016 3022 3026 3025 3025 3025 3025 3025 3024 3024 3025 3024 3024 3025 3026 3027 3028 3028 3030 3032 3034 3036 3037 3038 3038 3039 3040 3040 3041 3041 3041 3041 3042 3042 3043 3043 3044 3044 3045 3045 3045 3045 3045 3045 3045 3045 3045 3045 3045 3044 3044 3044 3044
3010 3011 3013 3013 3012 3014 3016 3015 3014 3013 3006 3001 3003 3007 3012 3015 3016 3020 3020 3012 3007 3010 3014 3017 3018 3018 3018 3020 3020 3021 3021 3017 3013 3015 3019 3020 3019 3019 3019 3018 3018 3019 3018 3018 3019 3019 3020 3021 3022 3023 3024 3025 3026 3028 3030 3031 3032 3033 3034 3034 3034 3035 3035 3036 3036 3036 3036 3037 3037 3038 3039 3039 3040 3040 3040 3040 3040 3041 3040 3040 3040 3039 3039 3038 3038 3038
3003 3004 3005 3005 3005 3007 3008 3008 3007 3004 3001 3000 3001 3003 3007 3010 3013 3017 3014 3004 3001 3006 3009 3010 3013 3014 3015 3016 3015 3016 3015 3012 3012 3013 3014 3013 3013 3014 3013 3013 3013 3014 3013 3014 3014 3015 3016 3017 3018 3019 3021 3022 3023 3024 3026 3027 3027 3028 3028 3029 3029 3030 3030 3031 3031 3031 3031 3031 3032 3034 3034 3035 3036 3036 3036 3036 3036 3035 3035 3034 3034 3034 3033 3033 3033 3033
2995 2997 2998 2998 2999 3001 3002 3001 3000 2998 2996 2998 2999 2999 3003 3007 3008 3007 3001 2997 3000 3003 3003 3005 3007 3008 3009 3010 3010 3010 3010 3009 3009 3009 3008 3008 3009 3009 3009 3009 3009 3009 3009 3010 3011 3012 3013 3014 3015 3016 3017 3018 3019 3020 3021 3022 3022 3023 3024 3024 3025 3025 3026 3026 3025 3026 3026 3027 3028 3029 3030 3031 3031 3031 3031 3031 3030 3030 3029 3029 3029 3029 3029 3028 3028 3027
2988 2990 2990 2991 2993 2995 2996 2997 2997 2994 2991 2993 2995 2997 2999 3000 2997 2993 2992 2995 2999 2999 2999 3000 3002 3002 3004 3004 3004 3005 3005 3005 3005 3004 3004 3004 3004 3004 3005 3005 3005 3006 3006 3007 3008 3009 3010 3011 3012 3013 3014 3014 3015 3016 3017 3018 3019 3019 3020 3020 3020 3021 3021 3021 3021 3022 3022 3023 3024 3025 3026 3026 3026 3026 3026 3026 3025 3025 3025 3025 3025 3024 3024 3023 3023 3023
2980 2982 2983 2984 2986 2989 2991 2992 2992 2988 2984 2986 2990 2992 2992 2991 2988 2988 2991 2993 2994 2994 2995 2996 2996 2997 2998 2998 2999 3000 3000 3000 3000 3000 3000 3000 3000 3000 3001 3001 3002 3003 3004 3004 3006 3006 3007 3008 3009 3009 3010 3011 3012 3012 3013 3014 3014 3014 3015 3015 3015 3016 3016 3017 3018 3018 3018 3019 3020 3021 3021 3021 3021 3021 3021 3021 3021 3021 3020 3020 3020 3020 3019 3019 3018 3018
2974 2975 2976 2977 2979 2982 2982 2982 2982 2981 2981 2983 2985 2986 2987 2986 2986 2988 2989 2989 2990 2991 2991 2991 2991 2992 2993 2993 2994 2995 2995 2996 2996 2996 2996 2996 2996 2996 2997 2998 2999 3000 3001 3002 3002 3003 3004 3004 3005 3005 3006 3007 3007 3008 3008 3009 3009 3010 3010 3010 3011 3012 3013 3013 3014 3014 3015 3016 3016 3017 3017 3017 3017 3017 3017 3017 3016 3016 3016 3016 3015 3015 3014 3014 3013 3013
2967 2969 2970 2972 2973 2974 2974 2975 2976 2978 2980 2981 2981 2982 2983 2984 2984 2985 2985 2985 2986 2987 2986 2987 2987 2988 2988 2989 2990 2990 2991 2992 2992 2991 2992 2992 2992 2993 2994 2995 2996 2997 2998 2999 2999 2999 3000 3000 3000 3001 3001 3002 3003 3003 3004 3004 3005 3005 3006 3007 3008 3009 3009 3010 3010 3011 3012 3012 3012 3013 3013 3013 3013 3013 3012 3012 3012 3012 3011 3011 3010 3010 3010 3009 3009 3008
2963 2965 2967 2969 2970 2971 2971 2972 2974 2975 2976 2977 2978 2979 2980 2980 2981 2981 2982 2982 2982 2983 2983 2984 2984 2984 2985 2986 2986 2987 2987 2988 2988 2988 2988 2989 2989 2990 2991 2992 2993 2994 2994 2994 2995 2995 2995 2996 2996 2997 2997 2998 2998 2999 3000 3001 3001 3002 3003 3004 3005 3006 3006 3007 3007 3008 3008 3008 3008 3008 3008 3008 3008 3008 3008 3008 3007 3007 3007 3006 3006 3006 3005 3004 3004 3004
2960 2962 2964 2964 2966 2967 2966 2967 2969 2971 2972 2973 2974 2975 2976 2976 2977 2977 2978 2978 2978 2979 2980 2980 2980 2981 2982 2982 2983 2984 2984 2984 2985 2986 2986 2986 2987 2988 2988 2989 2990 2990 2990 2991 2991 2991 2992 2992 2993 2993 2994 2995 2995 2996 2997 2998 2999 3000 3001 3001 3002 3003 3003 3004 3004 3004 3004 3004 3004 3004 3004 3004 3004 3003 3003 3003 3003 3003 3002 3002 3001 3001 3000 3000 2999 2999
2957 2959 2960 2960 2961 2961 2962 2963 2965 2966 2968 2969 2970 2971 2972 2973 2973 2974 2974 2974 2975 2975 2976 2976 2977 2978 2979 2980 2980 2981 2981 2982 2983 2983 2983 2984 2984 2984 2985 2986 2986 2987 2987 2988 2988 2989 2989 2990 2990 2991 2991 2992 2993 2994 2995 2995 2996 2997 2998 2998 2999 2999 2999 3000 3000 3000 3000 3000 3000 3000 3000 2999 2999 2999 2999 2999 2998 2998 2998 2997 2997 2996 2996 2995 2994 2994
2954 2954 2955 2957 2957 2957 2957 2959 2960 2961 2963 2965 2966 2967 2969 2969 2970 2970 2970 2970 2971 2971 2972 2973 2974 2974 2975 2976 2977 2978 2979 2979 2980 2980 2981 2981 2981 2982 2982 2982 2983 2984 2985 2985 2986 2986 2987 2987 2988 2988 2989 2990 2991 2991 2992 2992 2993 2994 2994 2994 2995 2995 2995 2995 2995 2996 2996 2996 2996 2996 2995 2995 2995 2995 2994 2994 2994 2993 2993 2992 2992 2991 2991 2990 2989 2988
2948 2949 2950 2952 2952 2951 2953 2955 2956 2958 2959 2961 2963 2964 2965 2965 2966 2966 2966 2967 2967 2968 2968 2969 2970 2971 2972 2972 2973 2975 2976 2976 2977 2978 2978 2978 2979 2979 2979 2980 2981 2981 2982 2983 2983 2983 2984 2985 2985 2986 2986 2987 2988 2988 2989 2989 2990 2990 2990 2991 2991 2991 2991 2991 2991 2992 2992 2991 2991 2991 2991 2991 2991 2990 2990 2990 2989 2989 2988 2988 2987 2986 2985 2984 2983 2982
2942 2944 2946 2947 2947 2949 2951 2953 2954 2955 2956 2958 2960 2961 2961 2961 2962 2963 2963 2964 2964 2964 2965 2965 2966 2967 2968 2969 2970 2971 2972 2973 2974 2974 2975 2975 2976 2976 2977 2978 2978 2979 2979 2980 2980 2981 2982 2982 2983 2983 2984 2984 2985 2985 2986 2986 2986 2986 2986 2986 2987 2987 2987 2987 2987 2988 2987 2987 2987 2987 2987 2986 2986 2986 2986 2985 2985 2984 2983 2982 2981 2980 2980 2978 2977 2976